Zurück zum Katalog

STARLINK-32501

AktivKommunikationVLEO
NORAD 61890·PAYLOAD·🇺🇸 United States

Gestartet Nov 9, 2024 von Vandenberg Space Force Base

Loading…

Nächste Überflüge (nächste 24 Stunden)

TLE

AktuellSource: CelesTrak SupGP

Epoche: Sep 14, 2026, 22:29 UTC

1 61890C 24204S   26257.93729167  .00013458  00000+0  39761-3 0  2578
2 61890  53.1589 324.0117 0001195  89.9764 105.6236 15.34383913    18

Verfolge STARLINK-32501 in Echtzeit mit AllMySat

Download on the App Store